[[{"header":{"parameterUnit":"m.s-1","parameterCategory":2,"la1":30.2991,"la2":30.254,"lo1":-89.0895,"lo2":-89.0444,"dy":0.0017,"dx":0.0017,"nx":28,"ny":28,"refTime":"2024-10-18T21:00:00:Z","depth":"0","parameterNumber":2,"parameterNumberName":"U-component_of_CURRENTS"},"data":[0,0,0,0,0,0,0,0,0,0,0,0,0,0,0,0,0,0,0,0,0,0,0,0,0,0,0,0,0,0,0,0,0,0,0,0,0,0,0,0,0,0,0,0,0,0,0,0,0,0,0,0,0,0,0,0,0,0,-0.2455,-0.2456,0,-0.2481,-0.2481,-0.2481,-0.2439,-0.2438,-0.2437,-0.2436,-0.2384,-0.2384,-0.2383,0,0,0,0,0,0,0,0,0,0,0,0,0,-0.2357,-0.2359,-0.2455,-0.2456,-0.2457,-0.2481,-0.2481,-0.2481,-0.2439,-0.2438,-0.2437,-0.2435,-0.2384,-0.2384,-0.2383,0,0,0,0,0,0,0,0,0,0,0,0,0,-0.2389,-0.236,-0.2455,-0.2442,-0.2441,-0.2481,-0.2481,-0.2481,-0.2439,-0.2438,-0.2436,-0.2435,-0.2384,-0.2384,-0.2383,-0.2412,0,0,-0.2381,-0.2381,0,0,0,0,0,0,0,0,-0.2388,-0.2393,-0.2443,-0.2443,-0.2442,-0.2459,-0.2427,-0.2455,-0.244,-0.2436,-0.2436,-0.2434,-0.2406,-0.2403,-0.2407,-0.2409,-0.2407,-0.2381,-0.2381,-0.2381,-0.2381,0,0,0,0,0,0,0,-0.2385,-0.2391,-0.2461,-0.2444,-0.2444,-0.243,-0.2433,-0.2432,-0.2425,-0.2436,-0.2434,-0.2444,-0.2404,-0.2408,-0.2405,-0.2406,-0.2381,-0.2381,-0.238,-0.238,-0.243,-0.2432,0,0,0,0,0,0,-0.2393,-0.239,-0.2461,-0.2463,-0.2415,-0.2434,-0.2436,-0.2452,-0.2427,-0.2423,-0.2445,-0.2442,-0.2409,-0.2406,-0.2403,-0.2436,-0.2381,-0.238,-0.238,-0.2429,-0.2431,-0.2432,0,0,0,0,0,0,-0.2391,-0.24,-0.246,-0.2429,-0.2436,-0.2437,-0.2455,-0.2453,-0.2453,-0.2435,-0.2429,-0.2447,-0.2408,-0.2404,-0.241,-0.2434,-0.238,-0.2379,-0.2427,-0.2429,-0.2431,-0.2502,0,0,0,0,0,0,-0.2388,-0.2399,-0.2413,-0.243,-0.2438,-0.2495,-0.2457,-0.2455,-0.2464,-0.2459,-0.2435,-0.2428,-0.2406,-0.2412,-0.241,-0.2432,-0.2379,-0.2424,-0.2428,-0.2431,-0.2497,-0.2506,-0.2514,0,0,0,0,0,-0.2385,-0.2416,-0.2413,-0.2422,-0.2458,-0.2497,-0.25,-0.2492,-0.2465,-0.2481,-0.246,-0.2429,-0.243,-0.2413,-0.241,-0.2433,-0.2423,-0.2427,-0.243,-0.2494,-0.2505,-0.2514,0,0,0,0,0,0,-0.2379,-0.2416,-0.2413,-0.2452,-0.2477,-0.2491,-0.2507,-0.2498,-0.2496,-0.2483,-0.2451,-0.2445,-0.246,-0.2443,-0.2424,-0.2458,-0.2422,-0.2425,-0.2471,-0.2481,-0.2489,-0.2485,-0.2378,0,0,0,0,0,-0.2388,-0.2416,-0.2448,-0.2477,-0.2493,-0.2499,-0.2511,-0.2509,-0.2511,-0.2508,-0.2491,-0.2476,-0.2478,-0.2474,-0.2472,-0.2492,-0.2476,-0.2506,-0.2514,-0.2521,-0.2519,-0.2524,-0.2533,-0.2445,-0.2445,-0.2445,0,0,-0.2392,-0.2416,-0.2431,-0.2477,-0.249,-0.2526,-0.2501,-0.2529,-0.2549,-0.2504,-0.2518,-0.2506,-0.2491,-0.2512,-0.2517,-0.2497,-0.2542,-0.2526,-0.2532,-0.2525,-0.2529,-0.2537,-0.2545,-0.2447,-0.2447,-0.2446,0,0,-0.2415,-0.2439,-0.2469,-0.2499,-0.2534,-0.2546,-0.2557,-0.2578,-0.2579,-0.2601,-0.2572,-0.2577,-0.2575,-0.2574,-0.2571,-0.2627,-0.2588,-0.2625,-0.2661,-0.2668,-0.2674,-0.268,-0.2684,-0.2689,-0.2627,-0.2627,-0.2627,0,-0.2415,-0.2457,-0.2484,-0.2524,-0.2547,-0.2558,-0.2592,-0.2611,-0.2627,-0.2633,-0.2613,-0.262,-0.2608,-0.2632,-0.2648,-0.2646,-0.2636,-0.2622,-0.2677,-0.2683,-0.2687,-0.2689,-0.2694,-0.2631,-0.2631,-0.263,-0.263,0,-0.2459,-0.2495,-0.2519,-0.2569,-0.2604,-0.2637,-0.2672,-0.2695,-0.2692,-0.27,-0.2722,-0.2712,-0.2708,-0.2716,-0.2696,-0.2728,-0.2707,-0.2688,-0.2649,-0.27,-0.2699,-0.2703,-0.2637,-0.2635,-0.2634,-0.2633,0,0,-0.244,-0.2531,-0.2535,-0.2561,-0.2626,-0.2655,-0.2706,-0.2749,-0.2772,-0.2785,-0.281,-0.2818,-0.2799,-0.2794,-0.2776,-0.2784,-0.2815,-0.2749,-0.2747,-0.2746,-0.2824,-0.2762,-0.276,-0.28,-0.28,-0.2801,-0.2815,0,-0.2454,-0.2525,-0.2572,-0.2631,-0.2666,-0.2709,-0.2757,-0.2798,-0.2822,-0.2855,-0.2854,-0.2868,-0.2834,-0.283,-0.2835,-0.2819,-0.2826,-0.2813,-0.2779,-0.2778,-0.2711,-0.2763,-0.265,-0.2648,-0.2818,-0.2819,-0.2819,0,-0.2463,-0.2512,-0.2573,-0.2654,-0.2674,-0.2714,-0.2779,-0.2825,-0.2885,-0.2902,-0.292,-0.2919,-0.2935,-0.2896,-0.2894,-0.2883,-0.2856,-0.2843,-0.2843,-0.2758,-0.2722,-0.2622,-0.2648,-0.2625,-0.2825,-0.2824,-0.2824,0,-0.2405,-0.2501,-0.2543,-0.2574,-0.2677,-0.2706,-0.2753,-0.2824,-0.2859,-0.2923,-0.2944,-0.297,-0.2966,-0.2955,-0.2917,-0.2908,-0.2909,-0.2894,-0.2817,-0.2813,-0.2695,-0.2678,-0.2686,-0.2892,-0.2892,-0.2892,-0.2892,0,-0.2387,-0.2418,-0.2518,-0.2542,-0.2586,-0.2673,-0.2721,-0.2775,-0.2856,-0.2894,-0.2946,-0.2968,-0.2976,-0.2975,-0.2945,-0.2888,-0.2927,-0.283,-0.2814,-0.2718,-0.2704,-0.266,-0.267,-0.2892,-0.2892,-0.2892,-0.2892,0,-0.2305,-0.238,-0.2425,-0.2529,-0.2556,-0.258,-0.268,-0.2719,-0.2807,-0.286,-0.2877,-0.2959,-0.2968,-0.2968,-0.2957,-0.2905,-0.2821,-0.2839,-0.2726,-0.2696,-0.2598,-0.2616,-0.2584,-0.2511,-0.2771,-0.2769,-0.2768,0,-0.2267,-0.2282,-0.2376,-0.2396,-0.2437,-0.2495,-0.2535,-0.2657,-0.2705,-0.284,-0.2855,-0.2911,-0.2919,-0.2898,-0.2846,-0.28,-0.2767,-0.265,-0.2612,-0.2583,-0.2593,-0.2594,-0.2535,-0.2495,-0.2491,-0.2488,-0.2486,0,-0.2174,-0.2204,-0.2243,-0.2282,-0.2323,-0.2374,-0.2447,-0.2482,-0.2629,-0.2685,-0.276,-0.279,-0.2814,-0.2737,-0.2688,-0.2634,-0.258,-0.2591,-0.259,-0.2402,-0.2375,-0.2298,-0.2505,-0.2462,-0.2464,-0.2466,-0.2467,-0.2468,-0.2078,-0.2075,-0.212,-0.2144,-0.219,-0.2223,-0.2223,-0.2327,-0.2382,-0.2457,-0.2585,-0.261,-0.2607,-0.2539,-0.2491,-0.2373,-0.2422,-0.2289,-0.2323,-0.2335,-0.2232,-0.2386,-0.2305,-0.2307,-0.2308,-0.2309,-0.231,0,-0.1948,-0.1963,-0.1978,-0.2008,-0.1999,-0.2074,-0.2136,-0.2121,-0.2139,-0.2263,-0.2313,-0.237,-0.2292,-0.2304,-0.2223,-0.2127,-0.2066,-0.2075,-0.2054,-0.2011,-0.2162,-0.2115,-0.1954,-0.1954,-0.1954,-0.1954,-0.1954,-0.1954,-0.1883,-0.1851,-0.1864,-0.1802,-0.1818,-0.1767,-0.177,-0.1777,-0.1833,-0.1879,-0.1977,-0.2106,-0.2133,-0.2241,-0.2116,-0.2012,-0.1952,-0.1892,-0.1922,-0.2043,-0.2066,-0.2088,-0.2046,-0.1874,-0.1874,-0.1684,-0.1683,-0.1682]},{"header":{"parameterUnit":"m.s-1","parameterCategory":2,"la1":30.2991,"la2":30.254,"lo1":-89.0895,"lo2":-89.0444,"dy":0.0017,"dx":0.0017,"nx":28,"ny":28,"refTime":"2024-10-18T21:00:00:Z","depth":"0","parameterNumber":3,"parameterNumberName":"V-component_of_CURRENTS"},"data":[0,0,0,0,0,0,0,0,0,0,0,0,0,0,0,0,0,0,0,0,0,0,0,0,0,0,0,0,0,0,0,0,0,0,0,0,0,0,0,0,0,0,0,0,0,0,0,0,0,0,0,0,0,0,0,0,0,0,-0.0287,-0.0286,0,-0.0196,-0.0195,-0.0194,-0.0133,-0.0133,-0.0133,-0.0132,-0.0009,-0.0007,-0.0004,0,0,0,0,0,0,0,0,0,0,0,0,0,-0.0334,-0.0334,-0.0287,-0.0286,-0.0285,-0.0197,-0.0195,-0.0194,-0.0133,-0.0133,-0.0133,-0.0132,-0.001,-0.0007,-0.0003,0,0,0,0,0,0,0,0,0,0,0,0,0,-0.0284,-0.0334,-0.0287,-0.0245,-0.024,-0.0197,-0.0195,-0.0193,-0.0133,-0.0133,-0.0132,-0.0132,-0.0012,-0.0007,-0.0003,0.0017,0,0,0.0011,0.0013,0,0,0,0,0,0,0,0,-0.0287,-0.0283,-0.0252,-0.0248,-0.0243,-0.0177,-0.0167,-0.0122,-0.0133,-0.0172,-0.0132,-0.0132,-0.0064,-0.0055,-0.0037,0.0022,0.0028,0.0011,0.0014,0.0016,0.0017,0,0,0,0,0,0,0,-0.0291,-0.0286,-0.0249,-0.0251,-0.0245,-0.0206,-0.0199,-0.0158,-0.012,-0.0169,-0.0165,-0.0157,-0.0061,-0.0042,-0.0034,0.0029,0.0011,0.0015,0.0018,0.002,0.0124,0.0124,0,0,0,0,0,0,-0.031,-0.0289,-0.0252,-0.0247,-0.0266,-0.0206,-0.0198,-0.0197,-0.0121,-0.0109,-0.0158,-0.0155,-0.005,-0.0039,-0.0029,0.0002,0.0016,0.002,0.0023,0.0124,0.0124,0.0124,0,0,0,0,0,0,-0.0311,-0.0308,-0.0256,-0.0267,-0.0258,-0.0206,-0.0205,-0.0196,-0.0177,-0.0113,-0.01,-0.0149,-0.0049,-0.0036,0.0007,0.0007,0.0022,0.0026,0.0123,0.0124,0.0124,0.0061,0,0,0,0,0,0,-0.0313,-0.0309,-0.0315,-0.0268,-0.0258,-0.0237,-0.0206,-0.0194,-0.0174,-0.0169,-0.0102,-0.009,-0.0047,0.0,0.0012,0.0013,0.003,0.0123,0.0123,0.0124,0.0063,0.0059,0.0055,0,0,0,0,0,-0.0315,-0.0329,-0.0316,-0.0311,-0.0268,-0.0238,-0.0229,-0.0189,-0.0174,-0.0169,-0.0122,-0.0092,0.0009,0.0004,0.0018,0.002,0.0123,0.0123,0.0124,0.0065,0.006,0.0056,0,0,0,0,0,0,-0.0351,-0.0322,-0.0308,-0.0311,-0.028,-0.0228,-0.0222,-0.0195,-0.0154,-0.015,-0.0089,-0.0073,-0.0037,-0.0,-0.0008,0.005,0.007,0.0073,0.0021,0.0017,0.0013,-0.0005,0.0034,0,0,0,0,0,-0.0364,-0.0368,-0.0328,-0.0331,-0.032,-0.0273,-0.0256,-0.023,-0.0187,-0.0169,-0.0121,-0.007,-0.0026,0.0001,0.0044,0.0076,0.0117,0.0086,0.0083,0.0079,0.0074,0.0134,0.0135,0.0124,0.0124,0.0124,0,0,-0.038,-0.0365,-0.0366,-0.034,-0.0313,-0.0303,-0.0261,-0.0243,-0.0228,-0.0162,-0.013,-0.0083,-0.0021,0.0016,0.0035,0.0047,0.0104,0.0079,0.0076,0.0073,0.0134,0.0135,0.0136,0.0124,0.0124,0.0124,0,0,-0.0417,-0.04,-0.0416,-0.0393,-0.0361,-0.033,-0.0329,-0.028,-0.0252,-0.0217,-0.0166,-0.0119,-0.0054,-0.0006,0.0026,0.0028,0.0079,0.0039,0.001,0.0068,0.0069,0.0071,0.0122,0.0129,0.004,0.004,0.0039,0,-0.0439,-0.045,-0.0414,-0.0418,-0.0405,-0.0348,-0.0355,-0.0317,-0.0259,-0.0235,-0.0218,-0.0114,-0.0063,-0.0008,-0.0008,0.0019,0.0057,0.002,0.0062,0.0065,0.0068,0.012,0.0128,0.0037,0.0037,0.0037,0.0037,0,-0.0481,-0.0487,-0.0493,-0.0481,-0.046,-0.0456,-0.0403,-0.0376,-0.0338,-0.0294,-0.0236,-0.0163,-0.0099,-0.0076,-0.0041,0.0004,0.0025,0.0047,0.007,0.0065,0.0121,0.013,0.0032,0.0033,0.0034,0.0035,0,0,-0.0537,-0.0529,-0.053,-0.0538,-0.0494,-0.0485,-0.0456,-0.0413,-0.0394,-0.0328,-0.0295,-0.0213,-0.0167,-0.0129,-0.0071,-0.0022,0.0031,0.0013,0.0017,0.0056,0.0155,0.0206,0.0222,0.0059,0.006,0.0061,0.0185,0,-0.0583,-0.0617,-0.0589,-0.0609,-0.0621,-0.0557,-0.0536,-0.0485,-0.0428,-0.0379,-0.0289,-0.0237,-0.0187,-0.0158,-0.0098,0.0002,0.0054,-0.0005,0.0161,0.0165,0.0206,0.0234,0.0268,0.0385,0.0195,0.0197,0.0198,0,-0.0631,-0.0649,-0.0685,-0.068,-0.0677,-0.0673,-0.0627,-0.0599,-0.0506,-0.046,-0.0382,-0.0307,-0.0211,-0.0178,-0.0007,-0.0048,0.0042,0.0117,0.0124,0.0199,0.0235,0.0362,0.041,0.0569,0.0214,0.0212,0.0211,0,-0.0695,-0.0712,-0.0747,-0.0744,-0.0725,-0.0723,-0.0704,-0.0627,-0.0603,-0.0507,-0.0476,-0.0347,-0.028,-0.015,0.0015,0.0005,0.0198,0.0209,0.0339,0.0343,0.0421,0.043,0.0637,0.0317,0.0317,0.0316,0.0316,0,-0.0754,-0.078,-0.0784,-0.0804,-0.0837,-0.0793,-0.0798,-0.0752,-0.0683,-0.0653,-0.0526,-0.0468,-0.0272,-0.0131,0.0007,0.0214,0.0202,0.0343,0.0385,0.04,0.0405,0.0585,0.0633,0.0321,0.032,0.0319,0.0318,0,-0.0815,-0.0817,-0.0862,-0.0868,-0.0872,-0.0894,-0.0876,-0.0873,-0.0794,-0.0748,-0.0721,-0.0547,-0.0348,-0.0146,0.0083,0.021,0.0498,0.0462,0.0465,0.0506,0.0769,0.0811,0.1049,0.1132,0.0631,0.0633,0.0635,0,-0.0849,-0.0879,-0.0921,-0.0954,-0.0962,-0.0984,-0.0997,-0.0938,-0.0926,-0.0792,-0.0776,-0.0572,-0.0412,-0.0045,0.0223,0.0497,0.0601,0.0671,0.0661,0.0804,0.0882,0.0914,0.0967,0.074,0.0742,0.0744,0.0746,0,-0.0912,-0.0924,-0.0962,-0.1038,-0.1075,-0.1107,-0.1116,-0.1122,-0.1036,-0.0972,-0.0843,-0.0699,-0.0314,0.0034,0.0401,0.0563,0.0793,0.0721,0.0881,0.0997,0.1037,0.1128,0.0629,0.0764,0.0762,0.0761,0.076,0.0759,-0.0947,-0.0995,-0.1049,-0.1115,-0.1166,-0.1212,-0.1236,-0.1218,-0.1184,-0.106,-0.0909,-0.0661,-0.0141,0.0401,0.0593,0.1013,0.0965,0.1128,0.1171,0.1194,0.127,0.0805,0.0978,0.0977,0.0977,0.0976,0.0976,0,-0.0989,-0.1045,-0.112,-0.1198,-0.1266,-0.1269,-0.13,-0.1298,-0.1259,-0.1092,-0.0929,-0.0362,0.0153,0.0626,0.1226,0.1447,0.1486,0.1553,0.1613,0.1647,0.1261,0.1263,0.1492,0.1491,0.1491,0.1491,0.1491,0.1491,-0.1012,-0.1095,-0.114,-0.1261,-0.1315,-0.138,-0.1397,-0.137,-0.1267,-0.0984,-0.0668,-0.041,0.0296,0.127,0.1824,0.1872,0.2034,0.2027,0.2111,0.1848,0.1811,0.1776,0.1793,0.2129,0.213,0.2489,0.2492,0.2495]}],[{"header":{"parameterUnit":"m.s-1","parameterCategory":2,"la1":30.2991,"la2":30.254,"lo1":-89.0895,"lo2":-89.0444,"dy":0.0017,"dx":0.0017,"nx":28,"ny":28,"refTime":"2024-10-18T21:00:00:Z","depth":"2","parameterNumber":2,"parameterNumberName":"U-component_of_CURRENTS"},"data":[0,0,0,0,0,0,0,0,0,0,0,0,0,0,0,0,0,0,0,0,0,0,0,0,0,0,0,0,0,0,0,0,0,0,0,0,0,0,0,0,0,0,0,0,0,0,0,0,0,0,0,0,0,0,0,0,0,0,-0.2166,-0.2166,0,-0.2192,-0.2192,-0.2192,-0.2163,-0.2162,-0.2162,-0.2161,-0.2125,-0.2125,-0.2124,0,0,0,0,0,0,0,0,0,0,0,0,0,-0.208,-0.2081,-0.2166,-0.2167,-0.2167,-0.2192,-0.2192,-0.2192,-0.2163,-0.2162,-0.2161,-0.216,-0.2125,-0.2125,-0.2124,0,0,0,0,0,0,0,0,0,0,0,0,0,-0.2109,-0.2082,-0.2166,-0.2158,-0.2158,-0.2192,-0.2192,-0.2192,-0.2163,-0.2162,-0.2161,-0.216,-0.2125,-0.2125,-0.2124,-0.2146,0,0,-0.2123,-0.2123,0,0,0,0,0,0,0,0,-0.2108,-0.2112,-0.2159,-0.2159,-0.2159,-0.2176,-0.2149,-0.2175,-0.2164,-0.2158,-0.2161,-0.2159,-0.2139,-0.2138,-0.2141,-0.2145,-0.2143,-0.2123,-0.2123,-0.2123,-0.2123,0,0,0,0,0,0,0,-0.2106,-0.2111,-0.2173,-0.216,-0.216,-0.215,-0.2153,-0.2154,-0.2151,-0.2158,-0.2157,-0.2166,-0.2138,-0.2142,-0.214,-0.2142,-0.2123,-0.2123,-0.2123,-0.2123,-0.2175,-0.2177,0,0,0,0,0,0,-0.2112,-0.2109,-0.2172,-0.2174,-0.2134,-0.2153,-0.2156,-0.2169,-0.2152,-0.215,-0.2167,-0.2164,-0.2143,-0.2141,-0.2139,-0.2176,-0.2123,-0.2123,-0.2123,-0.2173,-0.2175,-0.2177,0,0,0,0,0,0,-0.211,-0.2117,-0.2171,-0.2144,-0.2151,-0.2156,-0.2171,-0.217,-0.2174,-0.216,-0.2156,-0.2172,-0.2142,-0.2139,-0.215,-0.2174,-0.2123,-0.2122,-0.2172,-0.2174,-0.2176,-0.2243,0,0,0,0,0,0,-0.2107,-0.2117,-0.2129,-0.2145,-0.2153,-0.2203,-0.2173,-0.2172,-0.2183,-0.218,-0.2164,-0.2159,-0.2141,-0.215,-0.2149,-0.2173,-0.2122,-0.217,-0.2173,-0.2175,-0.2239,-0.2247,-0.2255,0,0,0,0,0,-0.2104,-0.2131,-0.213,-0.2137,-0.217,-0.2205,-0.2208,-0.2205,-0.2185,-0.22,-0.2186,-0.216,-0.2168,-0.2152,-0.215,-0.2174,-0.2168,-0.2172,-0.2175,-0.2235,-0.2246,-0.2254,0,0,0,0,0,0,-0.21,-0.2132,-0.213,-0.2164,-0.2188,-0.2202,-0.2217,-0.2212,-0.2214,-0.2206,-0.218,-0.2176,-0.2194,-0.2179,-0.2161,-0.2199,-0.2164,-0.2168,-0.221,-0.222,-0.2228,-0.2225,-0.2122,0,0,0,0,0,-0.2107,-0.2131,-0.216,-0.2185,-0.2201,-0.2208,-0.2221,-0.2222,-0.2227,-0.2226,-0.2215,-0.2206,-0.221,-0.221,-0.221,-0.2231,-0.2217,-0.2247,-0.2255,-0.2261,-0.2259,-0.2266,-0.2274,-0.2189,-0.2189,-0.2189,0,0,-0.2111,-0.2132,-0.2145,-0.2186,-0.22,-0.2232,-0.2212,-0.224,-0.2261,-0.2223,-0.2242,-0.2235,-0.2223,-0.2247,-0.2254,-0.2235,-0.2282,-0.2266,-0.2272,-0.2266,-0.227,-0.2278,-0.2286,-0.2191,-0.2191,-0.219,0,0,-0.2132,-0.2153,-0.218,-0.2207,-0.2241,-0.2253,-0.2264,-0.2286,-0.2291,-0.2316,-0.2293,-0.2302,-0.2306,-0.2306,-0.2304,-0.2358,-0.2324,-0.2359,-0.2394,-0.2401,-0.2408,-0.2414,-0.2417,-0.2423,-0.2361,-0.2362,-0.2362,0,-0.2134,-0.217,-0.2193,-0.2229,-0.2252,-0.2264,-0.2297,-0.2316,-0.2336,-0.2345,-0.233,-0.2345,-0.2336,-0.2361,-0.2378,-0.2376,-0.2369,-0.2357,-0.2411,-0.2416,-0.242,-0.2423,-0.2428,-0.2365,-0.2365,-0.2364,-0.2364,0,-0.2172,-0.2205,-0.2226,-0.2272,-0.2304,-0.2337,-0.2371,-0.2395,-0.2399,-0.241,-0.2437,-0.243,-0.2433,-0.2441,-0.2423,-0.2457,-0.2439,-0.242,-0.2383,-0.2433,-0.2433,-0.2437,-0.237,-0.2369,-0.2368,-0.2367,0,0,-0.2156,-0.2236,-0.2241,-0.2266,-0.2327,-0.2353,-0.2405,-0.2447,-0.2473,-0.2491,-0.252,-0.2531,-0.2518,-0.2515,-0.2501,-0.2509,-0.2542,-0.2479,-0.2478,-0.2478,-0.2554,-0.249,-0.2488,-0.2529,-0.253,-0.253,-0.2545,0,-0.2171,-0.2234,-0.2276,-0.2331,-0.2364,-0.2406,-0.2453,-0.2495,-0.2522,-0.2558,-0.2561,-0.2581,-0.255,-0.2551,-0.2558,-0.2545,-0.2553,-0.2539,-0.251,-0.251,-0.2442,-0.2491,-0.2295,-0.2287,-0.2549,-0.2549,-0.255,0,-0.2178,-0.2223,-0.228,-0.2355,-0.2374,-0.2413,-0.2479,-0.2524,-0.2585,-0.2606,-0.2628,-0.2631,-0.265,-0.2616,-0.2617,-0.2606,-0.2584,-0.2573,-0.2573,-0.2488,-0.2452,-0.2278,-0.2284,-0.2556,-0.2555,-0.2555,-0.2555,0,-0.2129,-0.2216,-0.2256,-0.2284,-0.2379,-0.241,-0.2456,-0.2528,-0.2563,-0.263,-0.2654,-0.2682,-0.2683,-0.2675,-0.2642,-0.2633,-0.2637,-0.2622,-0.2547,-0.2542,-0.2356,-0.2333,-0.2623,-0.2623,-0.2623,-0.2623,-0.2623,0,-0.2113,-0.2143,-0.2235,-0.2258,-0.2303,-0.2383,-0.2434,-0.2487,-0.2568,-0.2605,-0.2659,-0.2681,-0.2695,-0.2696,-0.2669,-0.2615,-0.2655,-0.2559,-0.2543,-0.2376,-0.2355,-0.2567,-0.256,-0.2623,-0.2623,-0.2623,-0.2623,0,-0.2041,-0.2109,-0.2152,-0.225,-0.2277,-0.2303,-0.24,-0.2438,-0.2527,-0.2578,-0.2598,-0.2677,-0.2686,-0.2691,-0.2683,-0.2631,-0.2602,-0.2569,-0.2373,-0.2333,-0.25,-0.2497,-0.2503,-0.2501,-0.2499,-0.2497,-0.2496,0,-0.2007,-0.2022,-0.2111,-0.213,-0.2171,-0.2229,-0.2267,-0.2385,-0.2428,-0.2558,-0.2571,-0.2629,-0.2631,-0.2612,-0.2558,-0.2513,-0.2562,-0.2292,-0.2242,-0.2504,-0.2489,-0.2488,-0.2488,-0.2028,-0.2023,-0.2019,-0.2016,0,-0.1925,-0.1954,-0.199,-0.2029,-0.2068,-0.2115,-0.2184,-0.2216,-0.2353,-0.2405,-0.2469,-0.2492,-0.2511,-0.2386,-0.2343,-0.2281,-0.2289,-0.2208,-0.2525,-0.2093,-0.2058,-0.2043,-0.2057,-0.1979,-0.1983,-0.1985,-0.1987,-0.1989,-0.1841,-0.1838,-0.1879,-0.1903,-0.1947,-0.1974,-0.1971,-0.2061,-0.2106,-0.2164,-0.2284,-0.2263,-0.2265,-0.2116,-0.2022,-0.1951,-0.2104,-0.1985,-0.1997,-0.2013,-0.1959,-0.1924,-0.181,-0.1812,-0.1814,-0.1816,-0.1818,0,-0.1725,-0.1737,-0.1751,-0.1776,-0.1766,-0.1839,-0.1888,-0.1862,-0.1864,-0.1952,-0.1985,-0.1817,-0.1758,-0.1775,-0.1624,-0.1592,-0.1561,-0.1508,-0.1463,-0.15,-0.1533,-0.1454,-0.1171,-0.1169,-0.1168,-0.1166,0,0,-0.1666,-0.1635,-0.1643,-0.1582,-0.1598,-0.1544,-0.1541,-0.1527,-0.1551,-0.151,-0.1515,-0.1673,-0.1726,-0.1453,-0.1385,-0.126,-0.136,-0.1191,-0.1709,-0.1693,-0.1724,-0.1808,-0.1728,0,0,0,0,0]},{"header":{"parameterUnit":"m.s-1","parameterCategory":2,"la1":30.2991,"la2":30.254,"lo1":-89.0895,"lo2":-89.0444,"dy":0.0017,"dx":0.0017,"nx":28,"ny":28,"refTime":"2024-10-18T21:00:00:Z","depth":"2","parameterNumber":3,"parameterNumberName":"V-component_of_CURRENTS"},"data":[0,0,0,0,0,0,0,0,0,0,0,0,0,0,0,0,0,0,0,0,0,0,0,0,0,0,0,0,0,0,0,0,0,0,0,0,0,0,0,0,0,0,0,0,0,0,0,0,0,0,0,0,0,0,0,0,0,0,-0.0172,-0.0171,0,-0.0092,-0.0091,-0.009,-0.0038,-0.0037,-0.0037,-0.0037,0.0074,0.0077,0.008,0,0,0,0,0,0,0,0,0,0,0,0,0,-0.021,-0.021,-0.0172,-0.0171,-0.017,-0.0092,-0.0091,-0.009,-0.0038,-0.0037,-0.0037,-0.0037,0.0074,0.0077,0.008,0,0,0,0,0,0,0,0,0,0,0,0,0,-0.0167,-0.021,-0.0172,-0.0136,-0.0132,-0.0092,-0.0091,-0.0089,-0.0038,-0.0037,-0.0037,-0.0037,0.0072,0.0077,0.0081,0.0101,0,0,0.0093,0.0095,0,0,0,0,0,0,0,0,-0.017,-0.0165,-0.0142,-0.0138,-0.0134,-0.0076,-0.0064,-0.0025,-0.0038,-0.0072,-0.0037,-0.0037,0.0026,0.0034,0.005,0.0106,0.0111,0.0094,0.0096,0.0098,0.0099,0,0,0,0,0,0,0,-0.0173,-0.0168,-0.0139,-0.0141,-0.0136,-0.01,-0.0094,-0.0056,-0.0024,-0.0069,-0.0065,-0.0059,0.0029,0.0046,0.0053,0.0112,0.0094,0.0097,0.01,0.0102,0.02,0.02,0,0,0,0,0,0,-0.019,-0.0172,-0.0141,-0.0136,-0.0153,-0.01,-0.0093,-0.0094,-0.0025,-0.0015,-0.0059,-0.0057,0.0039,0.0048,0.0057,0.0086,0.0098,0.0102,0.0104,0.02,0.02,0.02,0,0,0,0,0,0,-0.0191,-0.0188,-0.0145,-0.0153,-0.0145,-0.0101,-0.0101,-0.0092,-0.0076,-0.0018,-0.0007,-0.0053,0.0039,0.0051,0.0091,0.0091,0.0104,0.0108,0.02,0.02,0.02,0.0144,0,0,0,0,0,0,-0.0193,-0.0189,-0.0196,-0.0154,-0.0145,-0.0129,-0.0101,-0.0091,-0.0074,-0.0069,-0.0009,0.0002,0.004,0.0084,0.0095,0.0097,0.0111,0.0199,0.02,0.02,0.0146,0.0142,0.0139,0,0,0,0,0,-0.0194,-0.0208,-0.0197,-0.0193,-0.0156,-0.0129,-0.0121,-0.0086,-0.0074,-0.007,-0.0027,0.0,0.0093,0.0088,0.01,0.0104,0.0199,0.02,0.02,0.0147,0.0143,0.0139,0,0,0,0,0,0,-0.0227,-0.0202,-0.0189,-0.0195,-0.0167,-0.0121,-0.0117,-0.0093,-0.0056,-0.0053,0.0003,0.0017,0.0051,0.0085,0.0077,0.0133,0.015,0.0153,0.0106,0.0102,0.0099,0.0082,0.0114,0,0,0,0,0,-0.0239,-0.0244,-0.0208,-0.0213,-0.0203,-0.0161,-0.0147,-0.0124,-0.0086,-0.007,-0.0026,0.0021,0.0062,0.0087,0.0126,0.0157,0.0194,0.0168,0.0164,0.0161,0.0157,0.0213,0.0214,0.0201,0.0201,0.0201,0,0,-0.0254,-0.0241,-0.0244,-0.0221,-0.0197,-0.0188,-0.0152,-0.0137,-0.0123,-0.0063,-0.0034,0.0009,0.0067,0.0102,0.012,0.013,0.0184,0.0162,0.0158,0.0155,0.0213,0.0215,0.0216,0.0201,0.0201,0.0201,0,0,-0.029,-0.0275,-0.0291,-0.027,-0.0243,-0.0214,-0.0214,-0.017,-0.0145,-0.0113,-0.0066,-0.0023,0.0037,0.0083,0.0113,0.0117,0.0162,0.0127,0.0102,0.0156,0.0158,0.016,0.0204,0.021,0.0128,0.0128,0.0128,0,-0.031,-0.0322,-0.029,-0.0294,-0.0282,-0.0231,-0.0238,-0.0203,-0.015,-0.0129,-0.0114,-0.0017,0.003,0.0084,0.0084,0.011,0.0143,0.011,0.0151,0.0154,0.0157,0.0202,0.021,0.0125,0.0126,0.0126,0.0126,0,-0.035,-0.0357,-0.0363,-0.0352,-0.0334,-0.0331,-0.0281,-0.0257,-0.0222,-0.0182,-0.0128,-0.0059,-0.0,0.0022,0.0054,0.0098,0.0116,0.0137,0.0158,0.0155,0.0203,0.0212,0.0122,0.0123,0.0123,0.0124,0,0,-0.0405,-0.0397,-0.0398,-0.0405,-0.0365,-0.0358,-0.033,-0.029,-0.0273,-0.0211,-0.0181,-0.0102,-0.0061,-0.0025,0.0029,0.0077,0.0125,0.0107,0.0111,0.0144,0.0239,0.0274,0.0288,0.0152,0.0154,0.0155,0.0263,0,-0.0448,-0.048,-0.0453,-0.0472,-0.0484,-0.0424,-0.0405,-0.0357,-0.0305,-0.026,-0.0174,-0.0127,-0.0078,-0.0052,0.0006,0.0098,0.0146,0.0093,0.0243,0.0247,0.0274,0.0299,0.0263,0.0359,0.0272,0.0274,0.0275,0,-0.0494,-0.0511,-0.0544,-0.054,-0.0538,-0.0534,-0.0493,-0.0466,-0.0379,-0.0337,-0.0264,-0.0194,-0.0103,-0.0071,0.0089,0.0052,0.0135,0.0204,0.0211,0.0269,0.03,0.0351,0.0379,0.029,0.0289,0.0288,0.0287,0,-0.0556,-0.0571,-0.0604,-0.0601,-0.0584,-0.0582,-0.0566,-0.0495,-0.0472,-0.0384,-0.0357,-0.0234,-0.0174,-0.005,0.0103,0.0097,0.0272,0.0287,0.0397,0.0401,0.0413,0.0416,0.0389,0.0388,0.0388,0.0388,0.0388,0,-0.0612,-0.0637,-0.064,-0.0659,-0.0693,-0.0651,-0.0659,-0.0616,-0.0553,-0.0527,-0.0407,-0.0355,-0.0167,-0.0039,0.0093,0.028,0.0274,0.0399,0.0437,0.0393,0.0392,0.0365,0.036,0.0392,0.0391,0.039,0.039,0,-0.0671,-0.0672,-0.0715,-0.0722,-0.0727,-0.075,-0.0736,-0.0735,-0.0662,-0.0622,-0.0598,-0.0438,-0.0256,-0.0064,0.015,0.0268,0.0438,0.0498,0.0432,0.0459,0.0529,0.0521,0.064,0.0642,0.0644,0.0645,0.0647,0,-0.0705,-0.0733,-0.0773,-0.0807,-0.0815,-0.0839,-0.0853,-0.08,-0.0789,-0.0669,-0.0657,-0.0473,-0.0329,0.0007,0.0249,0.0503,0.0494,0.0601,0.0589,0.0534,0.0558,0.0547,0.0536,0.0582,0.0583,0.0583,0.0584,0,-0.0766,-0.0778,-0.0814,-0.0889,-0.0926,-0.0959,-0.097,-0.0977,-0.0898,-0.0844,-0.0731,-0.0603,-0.026,0.0027,0.036,0.0499,0.0563,0.0622,0.0598,0.0521,0.0488,0.0509,0.0499,0.0589,0.0589,0.0588,0.0588,0.0588,-0.0802,-0.0848,-0.09,-0.0965,-0.1016,-0.1061,-0.1086,-0.1071,-0.1044,-0.0934,-0.0802,-0.0586,-0.0288,0.019,0.0425,0.0645,0.0649,0.0694,0.0689,0.0684,0.0655,0.0627,0.0748,0.0748,0.0749,0.0749,0.0749,0,-0.0846,-0.0898,-0.0971,-0.1045,-0.1111,-0.1118,-0.1148,-0.1145,-0.1114,-0.0969,-0.0828,-0.0502,-0.0156,0.0151,0.051,0.0725,0.07,0.0746,0.0669,0.0664,0.0659,0.0625,0.0713,0.0713,0.0714,0.0714,0,0,-0.087,-0.0948,-0.0989,-0.1105,-0.1159,-0.1224,-0.1242,-0.1212,-0.1121,-0.0978,-0.0803,-0.0547,-0.0159,0.008,0.0358,0.0543,0.0539,0.0555,0.0563,0.0434,0.0426,0.0614,0.0555,0,0,0,0,0]}],[{"header":{"parameterUnit":"m.s-1","parameterCategory":2,"la1":30.2991,"la2":30.254,"lo1":-89.0895,"lo2":-89.0444,"dy":0.0017,"dx":0.0017,"nx":28,"ny":28,"refTime":"2024-10-18T21:00:00:Z","depth":"4","parameterNumber":2,"parameterNumberName":"U-component_of_CURRENTS"},"data":[0,0,0,0,0,0,0,0,0,0,0,0,0,0,0,0,0,0,0,0,0,0,0,0,0,0,0,0,0,0,0,0,0,0,0,0,0,0,0,0,0,0,0,0,0,0,0,0,0,0,0,0,0,0,0,0,0,0,-0.1526,-0.1527,0,-0.1584,-0.1585,-0.1585,-0.1615,-0.1615,-0.1616,-0.1616,-0.1656,-0.1657,-0.1658,0,0,0,0,0,0,0,0,0,0,0,0,0,-0.1436,-0.1437,-0.1526,-0.1527,-0.1528,-0.1584,-0.1585,-0.1585,-0.1615,-0.1615,-0.1616,-0.1616,-0.1656,-0.1657,-0.1658,0,0,0,0,0,0,0,0,0,0,0,0,0,-0.1481,-0.1438,-0.1526,-0.1551,-0.1554,-0.1584,-0.1585,-0.1585,-0.1615,-0.1615,-0.1616,-0.1616,-0.1656,-0.1657,-0.1658,-0.1658,0,0,-0.1662,-0.1662,0,0,0,0,0,0,0,0,-0.1478,-0.1484,-0.1547,-0.155,-0.1553,-0.1595,-0.1568,-0.161,-0.1615,-0.159,-0.1616,-0.1616,-0.1635,-0.1638,-0.1645,-0.166,-0.1662,-0.1662,-0.1663,-0.1663,-0.1664,0,0,0,0,0,0,0,-0.1475,-0.1481,-0.1547,-0.1548,-0.1552,-0.1558,-0.1565,-0.1576,-0.1608,-0.1592,-0.1595,-0.1605,-0.1637,-0.1644,-0.1646,-0.1663,-0.1662,-0.1663,-0.1664,-0.1664,-0.1756,-0.1758,0,0,0,0,0,0,-0.1472,-0.1478,-0.1545,-0.1549,-0.1518,-0.156,-0.1567,-0.1579,-0.1608,-0.1614,-0.1604,-0.1606,-0.1642,-0.1645,-0.1648,-0.1721,-0.1663,-0.1664,-0.1665,-0.1755,-0.1757,-0.1759,0,0,0,0,0,0,-0.147,-0.1478,-0.1543,-0.1516,-0.1525,-0.1561,-0.1575,-0.158,-0.1614,-0.1618,-0.1623,-0.1635,-0.1642,-0.1646,-0.1686,-0.172,-0.1665,-0.1666,-0.1753,-0.1755,-0.1758,-0.1822,0,0,0,0,0,0,-0.1467,-0.1477,-0.1498,-0.1516,-0.1527,-0.1582,-0.1575,-0.1581,-0.1619,-0.1622,-0.1645,-0.1648,-0.1643,-0.1684,-0.1687,-0.1721,-0.1667,-0.1751,-0.1754,-0.1757,-0.1818,-0.1827,-0.1834,0,0,0,0,0,-0.1464,-0.1489,-0.1498,-0.1507,-0.155,-0.1584,-0.159,-0.1614,-0.162,-0.1644,-0.1661,-0.1649,-0.1707,-0.1687,-0.169,-0.1725,-0.1749,-0.1753,-0.1757,-0.1815,-0.1825,-0.1834,0,0,0,0,0,0,-0.1464,-0.1495,-0.1506,-0.1541,-0.157,-0.159,-0.1619,-0.163,-0.1662,-0.1672,-0.1669,-0.1674,-0.1722,-0.1716,-0.1694,-0.1761,-0.1726,-0.1731,-0.1769,-0.1779,-0.1787,-0.1781,-0.1668,0,0,0,0,0,-0.1472,-0.15,-0.1528,-0.1559,-0.1577,-0.1602,-0.1623,-0.164,-0.1665,-0.1681,-0.1698,-0.1716,-0.1735,-0.1752,-0.1767,-0.1804,-0.179,-0.1829,-0.1837,-0.1844,-0.1842,-0.1852,-0.1861,-0.1771,-0.1771,-0.1771,0,0,-0.1482,-0.1503,-0.152,-0.1562,-0.1587,-0.1621,-0.1617,-0.166,-0.1693,-0.1679,-0.1737,-0.1747,-0.1752,-0.1795,-0.1815,-0.1798,-0.1865,-0.1849,-0.1854,-0.1849,-0.1857,-0.1866,-0.1873,-0.1774,-0.1773,-0.1773,0,0,-0.1504,-0.1534,-0.1562,-0.1592,-0.1636,-0.1653,-0.1672,-0.171,-0.1737,-0.1786,-0.1785,-0.1818,-0.1852,-0.1862,-0.1869,-0.1931,-0.1907,-0.1941,-0.1979,-0.199,-0.1997,-0.2003,-0.2004,-0.201,-0.1946,-0.1946,-0.1947,0,-0.1516,-0.155,-0.1577,-0.1611,-0.1641,-0.1671,-0.1708,-0.174,-0.1789,-0.1813,-0.1817,-0.1874,-0.1882,-0.1922,-0.1946,-0.1949,-0.1946,-0.1941,-0.1999,-0.2005,-0.201,-0.2009,-0.2015,-0.195,-0.195,-0.1949,-0.1949,0,-0.1547,-0.1588,-0.1611,-0.1661,-0.1699,-0.1739,-0.1782,-0.1827,-0.1861,-0.1885,-0.1944,-0.1958,-0.1986,-0.2002,-0.1994,-0.2039,-0.2023,-0.2007,-0.1971,-0.2023,-0.2019,-0.2023,-0.1955,-0.1954,-0.1953,-0.1952,0,0,-0.1532,-0.1616,-0.1626,-0.1659,-0.173,-0.1758,-0.1826,-0.1883,-0.1925,-0.1975,-0.2024,-0.2063,-0.2068,-0.2076,-0.2075,-0.2089,-0.2127,-0.2069,-0.2067,-0.2063,-0.2147,-0.2005,-0.1996,-0.2122,-0.2123,-0.2124,-0.2133,0,-0.1548,-0.1613,-0.1656,-0.1726,-0.1761,-0.1818,-0.1876,-0.1935,-0.1984,-0.2043,-0.2068,-0.2113,-0.2097,-0.2117,-0.2131,-0.2129,-0.214,-0.2126,-0.2103,-0.2102,-0.1964,-0.1996,-0.2127,-0.2136,-0.2137,-0.2137,-0.2138,0,-0.1551,-0.1598,-0.1666,-0.1755,-0.1778,-0.1831,-0.1921,-0.1975,-0.2058,-0.2098,-0.2144,-0.2164,-0.2202,-0.2179,-0.2195,-0.2187,-0.2174,-0.2166,-0.2166,-0.2009,-0.1967,-0.2072,-0.2145,-0.2144,-0.2144,-0.2143,-0.2143,0,-0.1501,-0.1599,-0.1654,-0.1686,-0.1793,-0.1843,-0.1902,-0.1992,-0.2038,-0.2131,-0.2167,-0.2216,-0.2238,-0.2239,-0.2219,-0.2217,-0.2223,-0.2215,-0.2074,-0.2064,-0.2161,-0.2154,-0.2222,-0.2222,-0.2222,-0.2222,-0.2222,0,-0.1477,-0.1524,-0.1641,-0.167,-0.174,-0.1827,-0.1903,-0.1969,-0.2064,-0.2106,-0.2184,-0.2205,-0.2254,-0.2258,-0.2241,-0.2156,-0.2236,-0.2077,-0.2054,-0.219,-0.2186,-0.2164,-0.2157,-0.2222,-0.2222,-0.2222,-0.2222,0,-0.1402,-0.1484,-0.1549,-0.1675,-0.1716,-0.1762,-0.1887,-0.193,-0.2037,-0.2093,-0.2123,-0.2206,-0.221,-0.2231,-0.2233,-0.2156,-0.2112,-0.2062,-0.2206,-0.2192,-0.1946,-0.1943,-0.1912,-0.1907,-0.1903,-0.1899,-0.1896,0,-0.1365,-0.1393,-0.1525,-0.1562,-0.1623,-0.1711,-0.1763,-0.1893,-0.1933,-0.2062,-0.2066,-0.2126,-0.2159,-0.2042,-0.2088,-0.2044,-0.2015,-0.1979,-0.1961,-0.1932,-0.1914,-0.1918,-0.192,-0.189,-0.1889,-0.1887,-0.1886,0,-0.1283,-0.1343,-0.1396,-0.147,-0.1536,-0.16,-0.1685,-0.1701,-0.1836,-0.1954,-0.195,-0.1949,-0.1951,-0.1944,-0.1917,-0.1887,-0.1998,-0.1935,-0.1943,-0.1927,-0.1905,-0.1892,-0.1899,-0.1872,-0.1874,-0.1875,-0.1876,0,-0.1218,-0.123,-0.1303,-0.1354,-0.1429,-0.1454,-0.1523,-0.1568,-0.1625,-0.1775,-0.1766,-0.1837,-0.1927,-0.1861,-0.1839,-0.1796,-0.1772,-0.1705,-0.1726,-0.1743,-0.1681,-0.1628,-0.1485,0,0,0,0,0,-0.1141,-0.1141,-0.1178,-0.1228,-0.1295,-0.1338,-0.145,-0.1524,-0.1658,-0.1605,-0.1683,-0.1679,-0.1658,-0.1697,-0.1616,-0.1763,-0.1777,-0.1661,-0.1712,-0.179,-0.1807,-0.1749,0,0,0,0,0,0,-0.1092,-0.112,-0.1132,-0.1103,-0.1112,-0.1172,-0.1236,-0.1336,-0.132,-0.1461,-0.1456,-0.1564,-0.1566,-0.1671,-0.1576,-0.1587,-0.158,-0.1717,-0.1712,-0.178,-0.1796,-0.1809,-0.1755,0,0,0,0,0]},{"header":{"parameterUnit":"m.s-1","parameterCategory":2,"la1":30.2991,"la2":30.254,"lo1":-89.0895,"lo2":-89.0444,"dy":0.0017,"dx":0.0017,"nx":28,"ny":28,"refTime":"2024-10-18T21:00:00:Z","depth":"4","parameterNumber":3,"parameterNumberName":"V-component_of_CURRENTS"},"data":[0,0,0,0,0,0,0,0,0,0,0,0,0,0,0,0,0,0,0,0,0,0,0,0,0,0,0,0,0,0,0,0,0,0,0,0,0,0,0,0,0,0,0,0,0,0,0,0,0,0,0,0,0,0,0,0,0,0,-0.009,-0.009,0,-0.0038,-0.0037,-0.0036,-0.0001,-0.0001,-0.0001,-0.0001,0.0087,0.0089,0.0091,0,0,0,0,0,0,0,0,0,0,0,0,0,-0.0107,-0.0107,-0.009,-0.0089,-0.0089,-0.0038,-0.0037,-0.0036,-0.0001,-0.0001,-0.0001,-0.0001,0.0086,0.0089,0.0091,0,0,0,0,0,0,0,0,0,0,0,0,0,-0.008,-0.0107,-0.009,-0.0066,-0.0064,-0.0038,-0.0037,-0.0036,-0.0001,-0.0001,-0.0001,-0.0001,0.0085,0.0088,0.0092,0.0108,0,0,0.0102,0.0103,0,0,0,0,0,0,0,0,-0.0082,-0.008,-0.007,-0.0068,-0.0065,-0.0027,-0.0011,0.0014,-0.0001,-0.0023,-0.0001,-0.0,0.0051,0.0057,0.0068,0.0112,0.0116,0.0102,0.0104,0.0106,0.0106,0,0,0,0,0,0,0,-0.0084,-0.0081,-0.0068,-0.007,-0.0067,-0.004,-0.0037,-0.0006,0.0014,-0.0021,-0.0019,-0.0016,0.0053,0.0065,0.007,0.0117,0.0102,0.0105,0.0107,0.0108,0.019,0.019,0,0,0,0,0,0,-0.0096,-0.0083,-0.007,-0.0067,-0.0075,-0.004,-0.0036,-0.0038,0.0013,0.002,-0.0016,-0.0014,0.0059,0.0066,0.0074,0.0099,0.0106,0.0109,0.0111,0.0189,0.019,0.019,0,0,0,0,0,0,-0.0097,-0.0096,-0.0072,-0.0074,-0.007,-0.0041,-0.0043,-0.0037,-0.0027,0.0016,0.0025,-0.0012,0.0059,0.0069,0.01,0.0103,0.011,0.0113,0.0189,0.019,0.019,0.0149,0,0,0,0,0,0,-0.0098,-0.0096,-0.0102,-0.0076,-0.007,-0.0063,-0.0043,-0.0036,-0.0026,-0.0023,0.0023,0.0031,0.006,0.0095,0.0104,0.0108,0.0116,0.0189,0.0189,0.019,0.015,0.0148,0.0146,0,0,0,0,0,-0.0098,-0.011,-0.0103,-0.0101,-0.0079,-0.0063,-0.0058,-0.0035,-0.0026,-0.0025,0.0009,0.003,0.0103,0.0098,0.0108,0.0113,0.0189,0.0189,0.019,0.0151,0.0148,0.0146,0,0,0,0,0,0,-0.012,-0.0107,-0.0099,-0.0106,-0.0088,-0.0058,-0.0057,-0.004,-0.0013,-0.001,0.0033,0.0043,0.0071,0.0098,0.0091,0.0137,0.0149,0.0152,0.0117,0.0114,0.0112,0.0098,0.0118,0,0,0,0,0,-0.0129,-0.0136,-0.0113,-0.012,-0.0113,-0.0086,-0.0077,-0.0062,-0.0035,-0.0023,0.0011,0.0047,0.0081,0.0101,0.0131,0.0158,0.0186,0.0168,0.0166,0.0164,0.0159,0.0207,0.0209,0.0191,0.0191,0.0191,0,0,-0.014,-0.0134,-0.0137,-0.0125,-0.011,-0.0105,-0.008,-0.0072,-0.0063,-0.0017,0.0005,0.0039,0.0085,0.0114,0.0129,0.0137,0.0183,0.0164,0.0162,0.0159,0.0208,0.021,0.0211,0.0191,0.0191,0.0191,0,0,-0.0167,-0.016,-0.0174,-0.0161,-0.0145,-0.0125,-0.0126,-0.0097,-0.0079,-0.0055,-0.0018,0.0018,0.0064,0.0102,0.0127,0.0133,0.0167,0.0141,0.0123,0.017,0.0172,0.0174,0.0206,0.0212,0.0143,0.0143,0.0143,0,-0.0182,-0.0195,-0.0174,-0.0179,-0.0173,-0.0138,-0.0145,-0.012,-0.0083,-0.0067,-0.0056,0.0022,0.006,0.0106,0.0107,0.0128,0.0153,0.0128,0.0166,0.0169,0.0172,0.0205,0.0211,0.0141,0.0141,0.0142,0.0142,0,-0.0213,-0.0222,-0.0228,-0.0224,-0.0213,-0.0214,-0.0179,-0.0161,-0.0137,-0.0107,-0.0064,-0.0008,0.0039,0.0059,0.0085,0.0125,0.0136,0.0154,0.017,0.0171,0.0206,0.0213,0.0138,0.0139,0.014,0.014,0,0,-0.0252,-0.0252,-0.0255,-0.0264,-0.0238,-0.0236,-0.0215,-0.0188,-0.0177,-0.0128,-0.0107,-0.0039,-0.0007,0.0023,0.0068,0.0111,0.0152,0.0135,0.0138,0.0161,0.0245,0.0228,0.0234,0.0177,0.0178,0.0179,0.026,0,-0.0284,-0.0314,-0.0297,-0.0318,-0.0328,-0.0288,-0.0276,-0.0242,-0.0203,-0.0171,-0.01,-0.0064,-0.0019,0.0001,0.0053,0.013,0.017,0.0128,0.0246,0.0249,0.0229,0.0242,0.0183,0.0266,0.0267,0.0269,0.027,0,-0.0317,-0.0335,-0.0366,-0.0372,-0.0373,-0.0376,-0.0351,-0.0333,-0.0269,-0.0237,-0.0177,-0.0121,-0.0043,-0.0015,0.0123,0.0093,0.016,0.0218,0.0223,0.0225,0.0245,0.0268,0.0283,0.0282,0.0281,0.028,0.0279,0,-0.036,-0.0381,-0.0412,-0.0413,-0.041,-0.0416,-0.0409,-0.0359,-0.0345,-0.0279,-0.0261,-0.0155,-0.0106,-0.0,0.0126,0.0126,0.0266,0.0286,0.0333,0.0333,0.0341,0.0339,0.0369,0.0369,0.0369,0.0369,0.0369,0,-0.0396,-0.0422,-0.0441,-0.0459,-0.0497,-0.0471,-0.0489,-0.0459,-0.0417,-0.0401,-0.0304,-0.0267,-0.0101,0.0003,0.0113,0.0246,0.0264,0.0329,0.0355,0.0322,0.0316,0.0346,0.0343,0.0372,0.0371,0.0371,0.037,0,-0.0431,-0.0442,-0.0486,-0.0508,-0.0521,-0.0548,-0.0557,-0.056,-0.0511,-0.0486,-0.0469,-0.0342,-0.0198,-0.0038,0.0141,0.0223,0.0352,0.0389,0.0332,0.0353,0.0389,0.0383,0.0456,0.0456,0.0456,0.0456,0.0456,0,-0.045,-0.0476,-0.0533,-0.057,-0.0587,-0.0622,-0.0644,-0.0614,-0.0609,-0.0531,-0.0521,-0.0385,-0.0284,-0.0043,0.0123,0.0337,0.0361,0.0419,0.0414,0.0382,0.04,0.0393,0.0386,0.0456,0.0456,0.0456,0.0456,0,-0.0485,-0.0509,-0.0545,-0.0625,-0.0672,-0.0713,-0.0737,-0.0741,-0.069,-0.0654,-0.0555,-0.0414,-0.0254,-0.0052,0.0114,0.0264,0.0381,0.0421,0.0421,0.0417,0.0384,0.0399,0.0393,0.0456,0.0456,0.0456,0.0456,0,-0.0507,-0.0547,-0.0602,-0.0667,-0.0733,-0.0777,-0.0787,-0.0768,-0.0751,-0.0652,-0.0623,-0.0436,-0.0318,-0.0091,0.006,0.0212,0.025,0.0286,0.0295,0.0296,0.0226,0.0159,0.0184,0,0,0,0,0,-0.0523,-0.0569,-0.0639,-0.0707,-0.0773,-0.0808,-0.0833,-0.0825,-0.0782,-0.0721,-0.0664,-0.0511,-0.0261,-0.0152,-0.0002,0.0055,0.0267,0.0233,0.0309,0.0458,0.0458,0.0401,0,0,0,0,0,0,-0.0535,-0.0602,-0.0639,-0.0723,-0.0776,-0.084,-0.0859,-0.0833,-0.0785,-0.0722,-0.0587,-0.0496,-0.0252,-0.0346,-0.0005,0.0042,0.0105,0.0359,0.0362,0.0458,0.0458,0.0458,0.04,0,0,0,0,0]}]]